Location: *
(46.1006°N, 1.8394°E)
Time: 03:06:40
(UTC+00:00)

Okean 1-7 Rocket - Pass Details

Date: 20 September 2019
Orbit: 617 x 649 km, 82.5° (Epoch: 19 October)

Event Time Altitude Azimuth Distance (km) Brightness Sun altitude
Rises 18:41:00 0° 360° (N) 2,915 7.2 -8.8°
Reaches altitude 10° 18:43:28 10° 11° (N) 2,008 6.2 -9.2°
Maximum altitude 18:47:24 30° 73° (ENE) 1,138 4.5 -9.8°
Drops below altitude 10° 18:51:19 10° 135° (SE) 2,012 5.7 -10.5°
Enters shadow 18:51:28 - 136° (SE) 2,061 5.7 -10.5°
